DW0268 Weather Reports


time (UTC)temp
C
wind
direction
speed
KPH
gust
KPH
rain 1hr
cm
rain 24hr
cm
rain mn
cm
humidity
%
barometer
mb
20260905040013 28 207 0.0 0.0 0.00 0.00 0.00 77 1015.7
20260905034512 28 207 0.0 0.0 0.00 0.00 0.00 77 1015.8
20260905033011 28 207 0.0 0.0 0.00 0.00 0.00 76 1016.0
20260905031511 28 207 0.0 0.0 0.00 0.00 0.00 78 1015.9
20260905030010 28 207 0.0 3.2 0.00 0.00 0.00 80 1016.1
20260905024509 28 207 0.0 3.2 0.00 0.00 0.00 80 1016.1
20260905023009 28 207 0.0 6.4 0.00 0.00 0.00 80 1016.1
20260905021508 30 173 0.0 0.0 0.00 0.00 0.00 75 1015.9
20260905020010 30 173 0.0 0.0 0.00 0.00 0.00 68 1015.7
20260905014507 31 173 0.0 1.6 0.00 0.00 0.00 64 1015.8
20260905013010 32 173 0.0 3.2 0.00 0.00 0.00 63 1015.6
20260905011513 32 173 0.0 4.8 0.00 0.00 0.00 61 1015.4
20260905010006 33 173 0.0 0.0 0.00 0.00 0.00 59 1015.4
20260905004505 33 173 0.0 0.0 0.00 0.00 0.00 58 1015.3
20260905003004 35 173 0.0 0.0 0.00 0.00 0.00 57 1015.1
20260905001509 35 173 0.0 0.0 0.00 0.00 0.00 59 1015.0
20260905000003 36 173 0.0 1.6 0.00 0.00 0.00 56 1014.9
20260904234502 36 173 0.0 1.6 0.00 0.00 0.00 56 1014.9
20260904233001 36 173 0.0 3.2 0.00 0.00 0.00 55 1014.9
20260904231600 36 173 0.0 4.8 0.00 0.00 0.00 53 1014.9
20260904230110 36 173 1.6 4.8 0.00 0.00 0.00 57 1015.0
20260904224559 36 188 3.2 6.4 0.00 0.00 0.00 55 1015.0
20260904223104 35 169 4.8 9.7 0.00 0.00 0.00 57 1015.0
20260904221603 35 182 3.2 6.4 0.00 0.00 0.00 62 1014.8
20260904220118 35 179 4.8 8.0 0.00 0.00 0.00 61 1014.9
20260904214555 35 157 4.8 12.9 0.00 0.00 0.00 56 1015.1
20260904213052 36 169 4.8 9.7 0.00 0.00 0.00 55 1015.1
20260904211550 36 225 4.8 11.3 0.00 0.00 0.00 56 1015.5
20260904210050 37 248 3.2 8.0 0.00 0.00 0.00 51 1015.6
20260904204550 37 132 3.2 12.9 0.00 0.00 0.00 53 1015.8
20260904203045 37 184 6.4 14.5 0.00 0.00 0.00 52 1015.9
20260904201551 37 65 1.6 14.5 0.00 0.00 0.00 51 1016.2
20260904200053 37 107 4.8 16.1 0.00 0.00 0.00 51 1016.5
20260904194547 37 175 4.8 12.9 0.00 0.00 0.00 51 1016.6
20260904193038 37 111 4.8 9.7 0.00 0.00 0.00 51 1016.8
20260904191535 36 221 4.8 17.7 0.00 0.00 0.00 53 1017.0
20260904190033 36 209 8.0 14.5 0.00 0.00 0.00 53 1017.2
20260904184600 36 251 4.8 11.3 0.00 0.00 0.00 55 1017.4
20260904183038 36 30 1.6 12.9 0.00 0.00 0.00 56 1017.6
20260904181530 35 277 0.0 11.3 0.00 0.00 0.00 57 1017.7
20260904180027 36 246 9.7 16.1 0.00 0.00 0.00 59 1017.6
20260904174554 36 115 3.2 9.7 0.00 0.00 0.00 58 1017.8
20260904173022 36 249 1.6 8.0 0.00 0.00 0.00 56 1017.8
20260904171521 36 193 4.8 9.7 0.00 0.00 0.00 57 1018.1
20260904170035 35 203 1.6 8.0 0.00 0.00 0.00 60 1018.2
20260904164516 35 261 3.2 9.7 0.00 0.00 0.00 61 1018.2
20260904163011 34 275 3.2 6.4 0.00 0.00 0.00 61 1018.3
20260904161507 34 229 4.8 9.7 0.00 0.00 0.00 63 1018.4
20260904160004 33 240 4.8 8.0 0.00 0.00 0.00 65 1018.4
20260904154559 33 255 3.2 8.0 0.00 0.00 0.00 66 1018.3
20260904153125 33 227 3.2 6.4 0.00 0.00 0.00 67 1018.5
20260904151554 32 273 1.6 6.4 0.00 0.00 0.00 68 1018.3
20260904150047 31 273 3.2 6.4 0.00 0.00 0.00 72 1018.2
20260904144544 31 273 0.0 3.2 0.00 0.00 0.00 76 1018.1
20260904143041 31 273 1.6 4.8 0.00 0.00 0.00 77 1018.0
20260904141539 30 42 0.0 4.8 0.00 0.00 0.00 78 1017.8
20260904140039 30 46 0.0 3.2 0.00 0.00 0.00 78 1017.9
20260904134531 29 46 0.0 3.2 0.00 0.00 0.00 82 1018.1
20260904133029 27 46 0.0 3.2 0.00 0.00 0.00 88 1017.9
20260904131525 26 46 0.0 3.2 0.00 0.00 0.00 94 1017.9
20260904130025 25 46 0.0 0.0 0.00 0.00 0.00 95 1018.1
20260904124527 25 46 0.0 1.6 0.00 0.00 0.00 94 1017.8
20260904123022 24 46 0.0 0.0 0.00 0.00 0.00 94 1017.8
20260904121522 24 46 0.0 1.6 0.00 0.00 0.00 94 1017.6
20260904120027 23 46 1.6 4.8 0.00 0.00 0.00 94 1017.5
20260904114520 23 340 0.0 0.0 0.00 0.00 0.00 93 1017.3
20260904113017 23 340 0.0 3.2 0.00 0.00 0.00 93 1017.0
20260904111515 24 340 0.0 1.6 0.00 0.00 0.00 93 1016.9
20260904110015 24 340 4.8 6.4 0.00 0.00 0.00 93 1017.0
20260904104512 25 166 1.6 4.8 0.00 0.00 0.00 91 1016.8
20260904103010 25 166 0.0 1.6 0.00 0.00 0.00 92 1016.7
20260904101512 25 166 3.2 4.8 0.00 0.00 0.00 91 1016.8
20260904100008 25 166 0.0 0.0 0.00 0.00 0.00 91 1016.5
20260904094511 25 166 0.0 3.2 0.00 0.00 0.00 91 1016.5
20260904093008 25 166 0.0 3.2 0.00 0.00 0.00 90 1016.4
20260904091504 25 166 0.0 4.8 0.00 0.00 0.00 90 1016.1
20260904090004 25 166 0.0 0.0 0.00 0.00 0.00 90 1016.1
20260904084503 25 166 0.0 0.0 0.00 0.00 0.00 89 1016.0
20260904083001 25 166 0.0 1.6 0.00 0.00 0.00 91 1015.9
20260904081600 25 166 0.0 1.6 0.00 0.00 0.00 90 1015.8
20260904080059 25 166 0.0 3.2 0.00 0.00 0.00 90 1016.0
20260904074601 25 166 0.0 3.2 0.00 0.00 0.00 90 1016.0
20260904073100 25 166 1.6 4.8 0.00 0.00 0.00 90 1016.0
20260904071559 26 166 1.6 4.8 0.00 0.00 0.00 89 1016.1
20260904070054 26 166 4.8 6.4 0.00 0.00 0.00 89 1016.0
20260904064552 26 166 0.0 0.0 0.00 0.00 0.00 88 1016.3
20260904063052 26 166 0.0 1.6 0.00 0.00 0.00 86 1016.4
20260904061550 27 166 0.0 0.0 0.00 0.00 0.00 84 1016.2
20260904060044 27 166 0.0 3.2 0.00 0.00 0.00 83 1016.3
20260904054546 27 166 0.0 3.2 0.00 0.00 0.00 83 1016.3
20260904053052 27 166 0.0 1.6 0.00 0.00 0.00 83 1016.2
20260904051538 27 166 0.0 3.2 0.00 0.00 0.00 82 1016.4
20260904050036 28 166 0.0 1.6 0.00 0.00 0.00 83 1016.4
20260904044536 28 166 0.0 0.0 0.00 0.00 0.00 82 1016.3
20260904043035 28 166 0.0 0.0 0.00 0.00 0.00 81 1016.4
20260904041539 28 166 0.0 3.2 0.00 0.00 0.00 81 1016.4